Change the Weather History Date:

Monday, May 27, 2013

  Actual Average Record
Temperature  
Mean Temperature 84 °F -  
Max Temperature 95 °F 86 °F 95 °F (2013)
Min Temperature 73 °F 77 °F 73 °F (2013)
Cooling Degree Days 19    
Growing Degree Days 34 (Base 50)    
Moisture  
Dew Point 74 °F    
Average Humidity 85    
Maximum Humidity 94    
Minimum Humidity 49    
Precipitation  
Precipitation 0.00 in - - ()
Sea Level Pressure  
Sea Level Pressure 29.94 in    
Wind  
Wind Speed 9 mph ()    
Max Wind Speed 32 mph    
Max Gust Speed 40 mph    
Visibility 4.9 miles    
Events Rain , Thunderstorm    
Averages and records for this station are not official NWS values.
T = Trace of Precipitation, MM = Missing Value Source: Averaged Metar Reports

Daily Weather History Graph

Daily Weather History Graph

Search for Another Location

Airport or City:

Trip Planner

Search our weather history database for the weather conditions in past years. The results will help you decide how hot, cold, wet, or windy it might be!

Date:

Astronomy

May. 27, 2013 Rise Set
Actual Time 5:39 AM AST 6:21 PM AST
Civil Twilight 5:16 AM AST 6:44 PM AST
Nautical Twilight 4:49 AM AST 7:11 PM AST
Astronomical Twilight 4:22 AM AST 7:38 PM AST
Moon 9:08 PM AST (5/27) 8:04 AM AST (5/27)
Length of Visible Light 13h 28m
Length of Day
12h 42m
Waning Gibbous, 91% of the Moon is Illuminated
May 27
Waning Gibbous
May 31
Last Quarter
Jun 8
New
Jun 16
First Quarter
Jun 23
Full

Hourly Weather History & Observations

Time (AST) Temp. Heat Index Dew Point Humidity Pressure Visibility Wind Dir Wind Speed Gust Speed Precip Events Conditions
12:00 AM 80.6 °F 86.2 °F 75.2 °F 84% 29.98 in 6.2 mi ENE 5.8 mph - N/A   Mostly Cloudy
1:00 AM 78.8 °F - 73.4 °F 83% 29.95 in - Calm Calm - N/A   Mostly Cloudy
2:00 AM 80.6 °F 87.1 °F 77.0 °F 89% 29.92 in 6.2 mi ENE 5.8 mph - N/A   Mostly Cloudy
3:00 AM 78.8 °F - 73.4 °F 83% 29.92 in 6.2 mi Calm Calm - N/A   Mostly Cloudy
4:00 AM 78.8 °F - 73.4 °F 83% 29.89 in 6.2 mi Calm Calm - N/A   Mostly Cloudy
5:00 AM 78.8 °F - 71.6 °F 78% 29.92 in 6.2 mi Calm Calm - N/A   Mostly Cloudy
6:00 AM 78.8 °F - 71.6 °F 78% 29.92 in 6.2 mi Calm Calm - N/A   Mostly Cloudy
6:24 AM 95.0 °F 104.5 °F 73.4 °F 49% 29.95 in 0.6 mi East 28.8 mph - N/A Rain Rain Showers
6:34 AM 77.0 °F - 73.4 °F 89% 29.95 in 0.6 mi East 17.3 mph - N/A Rain , Thunderstorm Thunderstorms and Rain
7:00 AM 73.4 °F - 69.8 °F 88% 29.95 in 3.1 mi Calm Calm - N/A Rain Rain Showers
9:00 AM 77.0 °F - 73.4 °F 89% 29.98 in 3.7 mi East 24.2 mph - N/A   Mostly Cloudy
9:20 AM 75.2 °F - 73.4 °F 94% 29.98 in 2.5 mi East 23.0 mph 40.3 mph N/A Rain Rain Showers
10:00 AM 75.2 °F - 73.4 °F 94% 29.98 in 3.1 mi ESE 32.2 mph - N/A Rain Rain Showers
11:00 AM 77.0 °F - 73.4 °F 89% 30.01 in 2.2 mi SE 29.9 mph - N/A Rain Rain
12:00 PM 77.0 °F - 73.4 °F 89% 29.98 in 3.1 mi ESE 20.7 mph - N/A Rain Light Rain
1:00 PM 77.0 °F - 73.4 °F 89% 29.95 in 5.0 mi ESE 17.3 mph - N/A Rain Light Rain
2:00 PM 80.6 °F 87.1 °F 77.0 °F 89% 29.92 in 6.2 mi ESE 13.8 mph - N/A   Mostly Cloudy
3:00 PM 80.6 °F 86.2 °F 75.2 °F 84% 29.92 in 6.2 mi East 12.7 mph - N/A   Mostly Cloudy
4:00 PM 80.6 °F 86.2 °F 75.2 °F 84% 29.83 in 6.2 mi East 11.5 mph - N/A   Mostly Cloudy
5:00 PM 80.6 °F 86.2 °F 75.2 °F 84% 29.89 in 6.2 mi East 11.5 mph - N/A   Mostly Cloudy
6:00 PM 78.8 °F - 75.2 °F 89% 29.89 in 6.2 mi East 11.5 mph - N/A   Mostly Cloudy
7:00 PM 78.8 °F - 73.4 °F 83% 29.89 in 6.2 mi East 15.0 mph - N/A   Mostly Cloudy
8:00 PM 78.8 °F - 73.4 °F 83% 29.92 in 6.2 mi East 8.1 mph - N/A   Mostly Cloudy
9:00 PM 78.8 °F - 75.2 °F 89% 29.95 in 6.2 mi East 5.8 mph - N/A   Mostly Cloudy
10:00 PM 78.8 °F - 75.2 °F 89% 29.95 in 6.2 mi East 11.5 mph - N/A   Mostly Cloudy
11:00 PM 78.8 °F - 73.4 °F 83% 29.95 in 6.2 mi East 15.0 mph - N/A   Mostly Cloudy